TELSTAR 19V

Last updated on Tue Sep 22 2026 00:03:14 GMT+0000 (Coordinated Universal Time)

1 43562U 18059A 26264.45300631 -.00000284 00000+0 00000+0 0 9998 2 43562 0.0099 166.3326 0002657 24.8943 269.1999 1.00286694 30102
UTC large
Height (km)
Speed (km/s)
/
Latitude / Longitude
Inclination (degrees)
Orbital Period (minutes)
Azimuth
Elevation
Range (km)
Doppler Factor

Next 0 passes for location: London (51.5072 / 0.1276)

No passes found over London.
TELSTAR 19V